Weather in Usugli

Russia / Zabaykalsky Krai     52°39′08″N   115°15′24″E
temp.,
°C
wind,
m/s
gust,
m/s
humid.,
%
clouds,
%
prec.,
mm/h
press.,
hPa
HPBL,
m
13 may, thu
thu1300:00+6w38472 0.0 1005284
03:00+1w23610 0.0 100746
06:00−1w23650 0.0 100861
09:00+6w46330 0.0 10061260
12:00+9wnw46235 0.0 10042572
15:00+12wnw5720100 0.0 10023390
18:00+11nw562198 0.0 10022905
21:00+6nnw34514 0.1 100581
14 may, fri
fri1400:00+3n3781100 0.6 1008422
03:00+2nnw2791100 0.7 1008363
06:00−1nw249229 0.0 1010122
09:00+5n575988 0.0 10091279
12:00+7n4648100 0.2 10081809
15:00+10n5740100 0.9 10072118
18:00+10n5839100 0.1 10072214
21:00+6n225760 0.1 101021
15 may, sat
sat1500:00+3nw226930 0.0 101215
03:00+2wnw22755 0.0 101322
06:00+1wnw22760 0.0 101322
09:00+10w14380 0.0 1011941
12:00+15wnw35255 0.0 10082355
15:00+17w57203 0.0 10062972
18:00+17w67172 0.0 10043005
21:00+10w22327 0.0 100418
16 may, sun
sun1600:00+8w61346100 0.0 1006659
03:00+3w713530 0.0 1007874
06:00+1w5136597 0.0 10061163
09:00+8nnw59505 0.0 10041116
12:00+13wnw5726100 0.0 10031734
15:00+16wnw681969 0.0 10022295
18:00+14w794226 0.0 10021413
21:00+10w612585 0.0 1003661
17 may, mon
mon1700:00+8wnw4126997 0.0 1005506
03:00+4w2286100 0.0 100639
06:00+4w1284100 0.0 100666
09:00+11wsw356082 0.0 10031168
12:00+12wsw4759100 0.1 10021433
15:00+17wsw61037100 0.1 9982601
18:00+16w71136100 0.0 9982444
21:00+11nw6123136 0.0 10011078